User: anonymous   Login
Location: Fours
(44.3167°N, 6.7000°E)
Time: 02:02:25
(UTC+00:00)
Language:

Cosmos 2098 - Orbit

View from above orbital plane
View from above orbital plane
View from above satellite
View from above satellite

Ground track
Ground track

The orbit data is extracted from the following two-line orbital elements,

1 20774U 90078A   22019.54193952  .00002512  00000-0  18984-3 0  9999
2 20774  82.9431 221.3031 0811306 136.6242 230.1782 13.74223242550265
Epoch (UTC): 19 January 2022 13:00:23
Eccentricity: 0.0811306
inclination: 82.9431°
perigee height: 387 km
apogee height: 1582 km
right ascension of ascending node: 221.3031°
argument of perigee: 136.6242°
revolutions per day: 13.74223242
mean anomaly at epoch: 230.1782°
orbit number at epoch: 55026

The dashed part of the orbit path shows where the satellite is in the earth's shadow,  

DLR